TimeEDT,TemperatureF,Dew PointF,Humidity,Sea Level PressureIn,VisibilityMPH,Wind Direction,Wind SpeedMPH,Gust SpeedMPH,PrecipitationIn,Events,Conditions,WindDirDegrees,DateUTC
12:15 AM,60.8,60.8,100,29.63,10.0,ENE,4.6,-,N/A,,Scattered Clouds,60,2013-03-25 04:15:00
12:35 AM,60.8,60.8,100,29.63,10.0,ENE,4.6,-,N/A,,Scattered Clouds,60,2013-03-25 04:35:00
12:55 AM,60.8,59.0,94,29.64,10.0,NE,4.6,-,N/A,,Clear,50,2013-03-25 04:55:00
1:15 AM,60.8,60.8,100,29.67,10.0,NNW,6.9,-,N/A,,Mostly Cloudy,330,2013-03-25 05:15:00
1:35 AM,62.6,60.8,94,29.68,10.0,NNW,5.8,-,N/A,,Overcast,330,2013-03-25 05:35:00
1:55 AM,62.6,60.8,94,29.67,10.0,NNW,3.5,-,N/A,,Overcast,340,2013-03-25 05:55:00
2:15 AM,62.6,60.8,94,29.68,10.0,Calm,Calm,-,N/A,,Overcast,0,2013-03-25 06:15:00
2:35 AM,62.6,60.8,94,29.69,10.0,WNW,5.8,-,N/A,,Overcast,300,2013-03-25 06:35:00
2:55 AM,62.6,59.0,88,29.69,10.0,WNW,9.2,-,N/A,,Overcast,290,2013-03-25 06:55:00
3:15 AM,60.8,53.6,77,29.70,10.0,WNW,15.0,20.7,N/A,,Scattered Clouds,290,2013-03-25 07:15:00
3:35 AM,59.0,44.6,59,29.72,10.0,West,10.4,-,N/A,,Clear,280,2013-03-25 07:35:00
3:55 AM,57.2,42.8,59,29.72,10.0,WNW,9.2,16.1,N/A,,Clear,290,2013-03-25 07:55:00
4:15 AM,55.4,44.6,67,29.72,10.0,West,6.9,-,N/A,,Clear,280,2013-03-25 08:15:00
4:35 AM,55.4,44.6,67,29.73,10.0,West,6.9,-,N/A,,Clear,280,2013-03-25 08:35:00
4:55 AM,53.6,44.6,72,29.74,10.0,West,6.9,-,N/A,,Clear,270,2013-03-25 08:55:00
5:15 AM,53.6,44.6,72,29.74,10.0,West,9.2,20.7,N/A,,Clear,280,2013-03-25 09:15:00
5:35 AM,53.6,42.8,67,29.75,10.0,West,12.7,19.6,N/A,,Clear,280,2013-03-25 09:35:00
5:55 AM,53.6,42.8,67,29.76,10.0,West,10.4,17.3,N/A,,Clear,280,2013-03-25 09:55:00
6:15 AM,53.6,41.0,62,29.77,10.0,West,12.7,24.2,N/A,,Clear,280,2013-03-25 10:15:00
6:35 AM,51.8,41.0,67,29.78,10.0,WNW,11.5,17.3,N/A,,Clear,290,2013-03-25 10:35:00
6:55 AM,51.8,41.0,67,29.80,10.0,NW,13.8,20.7,N/A,,Clear,310,2013-03-25 10:55:00
7:15 AM,50.0,39.2,66,29.81,10.0,WNW,12.7,20.7,N/A,,Clear,290,2013-03-25 11:15:00
7:35 AM,50.0,37.4,62,29.82,10.0,WNW,12.7,18.4,N/A,,Clear,300,2013-03-25 11:35:00
7:55 AM,50.0,37.4,62,29.84,10.0,WNW,12.7,19.6,N/A,,Clear,290,2013-03-25 11:55:00
8:15 AM,50.0,37.4,62,29.85,10.0,West,13.8,21.9,N/A,,Clear,280,2013-03-25 12:15:00
8:35 AM,50.0,37.4,62,29.86,10.0,WNW,11.5,21.9,N/A,,Clear,290,2013-03-25 12:35:00
8:55 AM,51.8,37.4,58,29.87,10.0,WNW,13.8,21.9,N/A,,Clear,290,2013-03-25 12:55:00
9:15 AM,51.8,37.4,58,29.87,10.0,West,17.3,23.0,N/A,,Clear,270,2013-03-25 13:15:00
9:35 AM,51.8,37.4,58,29.87,10.0,WNW,16.1,24.2,N/A,,Clear,290,2013-03-25 13:35:00
9:55 AM,53.6,37.4,54,29.87,10.0,WNW,12.7,21.9,N/A,,Clear,290,2013-03-25 13:55:00
10:15 AM,53.6,35.6,51,29.87,10.0,WNW,15.0,23.0,N/A,,Clear,290,2013-03-25 14:15:00
10:35 AM,53.6,35.6,51,29.87,10.0,West,16.1,24.2,N/A,,Clear,270,2013-03-25 14:35:00
10:55 AM,55.4,35.6,47,29.87,10.0,West,13.8,24.2,N/A,,Clear,260,2013-03-25 14:55:00
11:15 AM,57.2,35.6,44,29.88,10.0,West,18.4,26.5,N/A,,Clear,270,2013-03-25 15:15:00
11:35 AM,59.0,35.6,42,29.88,10.0,West,16.1,23.0,N/A,,Clear,280,2013-03-25 15:35:00
11:55 AM,59.0,35.6,42,29.88,10.0,West,17.3,24.2,N/A,,Clear,260,2013-03-25 15:55:00
12:15 PM,59.0,35.6,42,29.88,10.0,West,17.3,26.5,N/A,,Clear,280,2013-03-25 16:15:00
12:35 PM,60.8,33.8,36,29.88,10.0,West,15.0,26.5,N/A,,Clear,260,2013-03-25 16:35:00
12:55 PM,60.8,33.8,36,29.87,10.0,West,18.4,26.5,N/A,,Clear,280,2013-03-25 16:55:00
1:15 PM,60.8,32.0,34,29.87,10.0,West,19.6,34.5,N/A,,Clear,270,2013-03-25 17:15:00
1:35 PM,62.6,32.0,32,29.86,10.0,West,13.8,31.1,N/A,,Clear,280,2013-03-25 17:35:00
1:55 PM,62.6,32.0,32,29.87,10.0,West,25.3,32.2,N/A,,Clear,260,2013-03-25 17:55:00
2:15 PM,62.6,30.2,30,29.86,10.0,West,21.9,33.4,N/A,,Clear,270,2013-03-25 18:15:00
2:35 PM,62.6,30.2,30,29.85,10.0,West,23.0,31.1,N/A,,Clear,260,2013-03-25 18:35:00
2:55 PM,62.6,30.2,30,29.86,10.0,West,23.0,31.1,N/A,,Clear,270,2013-03-25 18:55:00
3:15 PM,62.6,30.2,30,29.85,10.0,WNW,16.1,27.6,N/A,,Clear,290,2013-03-25 19:15:00
3:35 PM,64.4,30.2,28,29.86,10.0,West,25.3,32.2,N/A,,Clear,260,2013-03-25 19:35:00
3:55 PM,64.4,30.2,28,29.86,10.0,West,23.0,28.8,N/A,,Clear,270,2013-03-25 19:55:00
4:15 PM,64.4,32.0,30,29.85,10.0,West,20.7,29.9,N/A,,Clear,280,2013-03-25 20:15:00
4:35 PM,62.6,30.2,30,29.85,10.0,WSW,21.9,34.5,N/A,,Clear,250,2013-03-25 20:35:00
4:55 PM,62.6,30.2,30,29.85,10.0,West,17.3,29.9,N/A,,Clear,260,2013-03-25 20:55:00
5:15 PM,62.6,30.2,30,29.86,10.0,West,19.6,26.5,N/A,,Clear,260,2013-03-25 21:15:00
5:35 PM,62.6,30.2,30,29.86,10.0,West,16.1,26.5,N/A,,Clear,260,2013-03-25 21:35:00
5:55 PM,62.6,28.4,27,29.87,10.0,West,20.7,27.6,N/A,,Clear,280,2013-03-25 21:55:00
6:15 PM,62.6,28.4,27,29.87,10.0,West,18.4,28.8,N/A,,Clear,270,2013-03-25 22:15:00
6:35 PM,62.6,28.4,27,29.87,10.0,West,17.3,25.3,N/A,,Clear,270,2013-03-25 22:35:00
6:55 PM,60.8,24.8,25,29.88,10.0,West,17.3,27.6,N/A,,Clear,280,2013-03-25 22:55:00
7:15 PM,60.8,26.6,27,29.89,10.0,West,13.8,19.6,N/A,,Clear,280,2013-03-25 23:15:00
7:35 PM,59.0,28.4,31,29.90,10.0,West,12.7,20.7,N/A,,Clear,280,2013-03-25 23:35:00
7:55 PM,59.0,26.6,29,29.92,10.0,West,12.7,18.4,N/A,,Clear,280,2013-03-25 23:55:00
8:15 PM,57.2,26.6,31,29.93,10.0,West,9.2,16.1,N/A,,Clear,270,2013-03-26 00:15:00
8:35 PM,55.4,26.6,33,29.95,10.0,West,9.2,-,N/A,,Clear,280,2013-03-26 00:35:00
8:55 PM,55.4,26.6,33,29.95,10.0,West,8.1,-,N/A,,Clear,280,2013-03-26 00:55:00
9:15 PM,55.4,28.4,36,29.97,10.0,West,5.8,-,N/A,,Clear,280,2013-03-26 01:15:00
9:35 PM,53.6,28.4,38,29.98,10.0,WSW,4.6,-,N/A,,Clear,250,2013-03-26 01:35:00
9:55 PM,53.6,28.4,38,29.98,10.0,West,8.1,-,N/A,,Clear,270,2013-03-26 01:55:00
10:15 PM,53.6,30.2,41,30.00,10.0,West,9.2,-,N/A,,Clear,280,2013-03-26 02:15:00
10:35 PM,51.8,30.2,44,30.00,10.0,West,5.8,-,N/A,,Clear,270,2013-03-26 02:35:00
10:55 PM,51.8,32.0,47,30.01,10.0,West,5.8,-,N/A,,Clear,270,2013-03-26 02:55:00
11:15 PM,50.0,32.0,50,30.02,10.0,West,4.6,-,N/A,,Clear,260,2013-03-26 03:15:00
11:35 PM,50.0,32.0,50,30.03,10.0,West,5.8,-,N/A,,Clear,270,2013-03-26 03:35:00
11:55 PM,50.0,32.0,50,30.03,10.0,West,4.6,-,N/A,,Clear,280,2013-03-26 03:55:00